Regional Weather Roundup
Issued by NWS

Home | Current Version | Previous Version | Graphics & Text | Print | Product List | Glossary On
Versions: 1 2 3 4 5 6 7 8 9 10 11 12 13 14 15 16 17 18 19 20 21 22 23 24 25 26 27 28 29 30 31 32 33 34 35 36 37 38 39 40 41 42 43 44 45 46 47 48 49 50
000
ASUS43 KDTX 050510
RWRMI
MICHIGAN HOURLY REGIONAL WEATHER ROUNDUP
NATIONAL WEATHER SERVICE DETROIT/PONTIAC MI
ISSUED BY NATIONAL WEATHER SERVICE GRAND RAPIDS MI
1200 AM EST MON DEC 05 2016

NOTE: "FAIR" INDICATES FEW OR NO CLOUDS BELOW 12,000 FEET WITH NO
SIGNIFICANT WEATHER AND/OR OBSTRUCTION TO VISIBILITY.

MIZ047>049-052>055-059>063-066>070-074>076-081>083-050600-
SOUTHEAST LOWER MICHIGAN

CITY           SKY/WX    TMP DP  RH WIND       PRES   REMARKS
ADRIAN         CLOUDY    32  32 100 W6        29.82S FOG     WCI  26
ALMA           FOG       31  31  99 W6        29.83S VSB 3/4 WCI  26
ANN ARBOR      CLOUDY    33  32  96 S5        29.80F FOG     WCI  29
BAD AXE        LGT SNOW  32  32  99 NW3       29.82F VSB 1
DETROIT CITY   LGT SNOW  33  33 100 S5        29.81F FOG     WCI  29
DETROIT        LGT SNOW  33  32  96 CALM      29.82S FOG
FLINT          LGT SNOW  32  32 100 W3        29.82F FOG
GROSSE ILE     CLOUDY    36  34  92 SW10      29.80F WCI  28
HILLSDALE      MIX PCPN  32  32 100 W6        29.80R WCI  26
HOWELL         LGT SNOW  33  32  98 W3        29.81R

CITY           SKY/WX    TMP DP  RH WIND       PRES   REMARKS
JACKSON        CLOUDY    33  30  88 W6        29.82R WCI  28
LANSING        CLOUDY    32  30  92 W3        29.83S FOG
MASON          CLOUDY    32  32 100 W3        29.82S FOG
MONROE         CLOUDY    34  34 100 SW6       29.81S FOG     WCI  29
MT. CLEMENS    FRZ RAIN  32  32 100 S5        29.79F WCI  27
PONTIAC        LGT SNOW  33  30  88 SW5       29.79F FOG     WCI  29
PORT HOPE        N/A     33  32  96 W5        29.80F WCI  29
PORT HURON     LGT RAIN  34  34 100 S6        29.80F WCI  29
TRI CITIES     LGT SNOW  32  32 100 CALM      29.83R VSB 3/4
YPSILANTI      CLOUDY    33  33 100 CALM      29.82R FOG
$$
MIZ043>046-050>051-056>058-064>065-071>073-077>080-050600-
SOUTHWEST LOWER MICHIGAN

CITY           SKY/WX    TMP DP  RH WIND       PRES   REMARKS
BATTLE CREEK   CLOUDY    33  32  96 W6        29.83F WCI  28
BENTON HARBOR  CLOUDY    37  31  78 W12       29.87R WCI  29
BIG RAPIDS     LGT SNOW  32  31  94 S3        29.79F
COLDWATER      CLOUDY    33  33 100 W7        29.83S FOG     WCI  27
HOLLAND        CLOUDY    33  32  96 S5        29.84S WCI  29
GRAND RAPIDS   MOCLDY    31  29  92 S5        29.83F FOG     WCI  26
KALAMAZOO      CLOUDY    33  30  88 W5        29.85R WCI  29
MARSHALL       CLOUDY    32  32  99 W6        29.82S FOG     WCI  27
MOUNT PLEASANT SNOW      31  31  99 CALM      29.80F VSB 1/4
MUSKEGON       CLOUDY    38  33  82 W16G22    29.83S WCI  29
STURGIS        CLOUDY    33  32  95 W6        29.84S FOG     WCI  27
$$
MIZ016>042-050600-
NORTHERN LOWER MICHIGAN

CITY           SKY/WX    TMP DP  RH WIND       PRES   REMARKS
ALPENA         LGT SNOW  32  31  96 CALM      29.81F FOG
BEAVER ISLAND  LGT SNOW  33  33  99 SE5       29.75F WCI  28
BELLAIRE       LGT SNOW  32  32  99 S6        29.78F WCI  27
CADILLAC       LGT SNOW  31  29  94 S6        29.76F WCI  25
CHARLEVOIX     LGT SNOW  32  32 100 S5        29.80F WCI  28
GAYLORD        LGT SNOW  31  27  85 S7        29.75F FOG     WCI  24
HOUGHTON LAKE  LGT SNOW  30  29  96 S3        29.78F FOG
MANISTEE       MIX PCPN  32  31  96 S5        29.79F FOG     WCI  27
OSCODA         LGT SNOW  33  33  96 MISG      29.81F
PELLSTON       LGT SNOW  31  29  92 SE3       29.79F FOG
TRAVERSE CITY  LGT SNOW  33  31  92 VRB3      29.77F VSB 1
LUDINGTON      RAIN      35  34  95 W8        29.80S WCI  29
$$
MIZ007>008-015-050600-
EASTERN UPPER MICHIGAN

CITY           SKY/WX    TMP DP  RH WIND       PRES   REMARKS
KINROSS        LGT SNOW  31  31 100 S6        29.78F FOG     WCI  25
MACKINAC ISLAN LGT SNOW  32  32 100 S6        29.78F WCI  26
NEWBERRY       LGT SNOW  32  32  99 SE6       29.74F WCI  26
S. S. MARIE    LGT SNOW  32  31  96 E5        29.79F FOG     WCI  27
$$
MIZ004>006-011>014-085-050600-
CENTRAL UPPER MICHIGAN

CITY           SKY/WX    TMP DP  RH WIND       PRES   REMARKS
MANISTIQUE     MIX PCPN  34  32  92 SW5       29.73F WCI  30
ESCANABA       LGT SNOW  32  31  96 SW6       29.74F FOG     WCI  26
MENOMINEE      CLOUDY    32  31  96 W6        29.77S FOG     WCI  26
SAWYER-GWINN   LGT SNOW  30  28  95 SW8       29.70S WCI  22
$$
MIZ001>003-009>011-084-050600-
WESTERN UPPER MICHIGAN

CITY           SKY/WX    TMP DP  RH WIND       PRES   REMARKS
IRON MOUNTAIN  CLOUDY    30  27  88 S5        29.70F WCI  25
HOUGHTON       LGT SNOW  30  27  88 S6        29.65F FOG     WCI  24
COPPER HARBOR    N/A     33  32  96 CALM      29.69S
IRONWOOD       CLOUDY    32  30  92 SW10      29.67S WCI  24
$$

ABBREVIATIONS USED IN REMARKS
   TC - TEMPERATURE IN CELSIUS
  WCI - WIND CHILL INDEX
   HX - HEAT INDEX
  VSB - VISIBILITY





USA.gov is the U.S. government's official web portal to all federal, state and local government web resources and services.